Zurück zum Katalog

NOAA 17 DEB

AktivSSO
NORAD 48725·DEBRIS·🇺🇸 United States

Gestartet Jun 24, 2002 von Vandenberg Space Force Base

Loading…

Nächste Überflüge (nächste 24 Stunden)

TLE

AktuellSource: Space-Track

Epoche: Sep 14, 2026, 08:27 UTC

1 48725U 02032BJ  26257.35273276  .00009587  00000-0  22402-2 0  9991
2 48725  98.7030 212.7689 0051969  60.2487 300.3864 14.54059606285758

Verfolge NOAA 17 DEB in Echtzeit mit AllMySat

Download on the App Store